�������l�o���
Date,Time,MP-1(��Sv/h),MP-2(��Sv/h),MP-3(��Sv/h),MP-4(��Sv/h),MP-5(��Sv/h),MP-6(��Sv/h),MP-7(��Sv/h),MP-8(��Sv/h),����,����(m/s),���J
2018/10/31,00:00,0.786,1.188,0.834,1.484,1.077,0.462,0.811,0.765,���k��,2.9,��
2018/10/31,00:10,0.785,1.188,0.835,1.483,1.075,0.461,0.810,0.765,���쐼,1.9,��
2018/10/31,00:20,0.787,1.187,0.833,1.484,1.079,0.460,0.808,0.766,�쐼,2.2,��
2018/10/31,00:30,0.785,1.185,0.836,1.483,1.080,0.462,0.809,0.765,��쓌,1.5,��
2018/10/31,00:40,0.785,1.189,0.835,1.484,1.078,0.461,0.809,0.766,��,1.1,��
2018/10/31,00:50,0.785,1.188,0.835,1.484,1.078,0.461,0.812,0.764,��,2.0,��
2018/10/31,01:00,0.787,1.189,0.833,1.484,1.078,0.462,0.810,0.764,��,2.3,��
2018/10/31,01:10,0.784,1.189,0.836,1.483,1.078,0.461,0.810,0.765,��,3.3,��
2018/10/31,01:20,0.784,1.189,0.835,1.484,1.078,0.462,0.810,0.766,���k��,3.8,��
2018/10/31,01:30,0.784,1.187,0.834,1.481,1.075,0.462,0.810,0.765,���k��,5.3,��
2018/10/31,01:40,0.784,1.188,0.835,1.485,1.078,0.462,0.810,0.766,��,4.1,��
2018/10/31,01:50,0.785,1.189,0.834,1.483,1.077,0.461,0.809,0.765,���쐼,3.6,��
2018/10/31,02:00,0.783,1.185,0.835,1.483,1.077,0.462,0.809,0.766,��,6.9,��
2018/10/31,02:10,0.787,1.188,0.837,1.485,1.080,0.462,0.808,0.766,���k��,4.5,��
2018/10/31,02:20,0.785,1.188,0.834,1.484,1.078,0.460,0.811,0.764,�k��,3.2,��
2018/10/31,02:30,0.783,1.187,0.833,1.483,1.078,0.461,0.810,0.764,�k��,0.9,��
2018/10/31,02:40,0.786,1.188,0.835,1.485,1.077,0.461,0.810,0.764,�k�k��,1.2,��
2018/10/31,02:50,0.786,1.188,0.835,1.484,1.079,0.460,0.810,0.766,���쐼,0.9,��
2018/10/31,03:00,0.784,1.187,0.835,1.484,1.079,0.462,0.810,0.766,��,2.8,��
2018/10/31,03:10,0.785,1.190,0.834,1.488,1.078,0.463,0.811,0.766,���k��,7.8,��
2018/10/31,03:20,0.786,1.187,0.836,1.485,1.078,0.462,0.810,0.765,��,8.6,��
2018/10/31,03:30,0.786,1.186,0.836,1.484,1.079,0.462,0.811,0.765,��,5.3,��
2018/10/31,03:40,0.785,1.189,0.833,1.485,1.078,0.463,0.811,0.765,��,2.9,��
2018/10/31,03:50,0.784,1.186,0.836,1.484,1.077,0.461,0.809,0.764,���k��,3.4,��
2018/10/31,04:00,0.786,1.188,0.836,1.482,1.076,0.462,0.810,0.764,��,3.6,��
2018/10/31,04:10,0.785,1.189,0.835,1.483,1.076,0.462,0.809,0.765,�k��,4.7,��
2018/10/31,04:20,0.786,1.187,0.834,1.482,1.079,0.462,0.810,0.765,�k��,4.5,��
2018/10/31,04:30,0.785,1.189,0.836,1.485,1.076,0.462,0.811,0.766,�k��,4.6,��
2018/10/31,04:40,0.785,1.186,0.836,1.485,1.078,0.463,0.810,0.764,���k��,5.0,��
2018/10/31,04:50,0.784,1.190,0.836,1.487,1.077,0.461,0.810,0.765,��,5.9,��
2018/10/31,05:00,0.785,1.187,0.838,1.487,1.076,0.461,0.810,0.767,��,7.3,��
2018/10/31,05:10,0.786,1.185,0.838,1.484,1.076,0.461,0.810,0.766,��,4.8,��
2018/10/31,05:20,0.785,1.188,0.835,1.487,1.076,0.461,0.811,0.764,���k��,3.5,��
2018/10/31,05:30,0.784,1.189,0.836,1.485,1.078,0.462,0.811,0.766,���k��,7.4,��
2018/10/31,05:40,0.787,1.190,0.835,1.488,1.077,0.461,0.811,0.764,��,5.9,��
2018/10/31,05:50,0.785,1.189,0.837,1.485,1.075,0.462,0.812,0.765,��,8.6,��
2018/10/31,06:00,0.784,1.188,0.835,1.485,1.078,0.460,0.813,0.765,���k��,7.5,��
2018/10/31,06:10,0.787,1.189,0.836,1.486,1.078,0.460,0.810,0.766,��,7.1,��
2018/10/31,06:20,0.784,1.189,0.836,1.484,1.077,0.461,0.809,0.765,��,8.1,��
2018/10/31,06:30,0.785,1.188,0.836,1.489,1.077,0.462,0.810,0.765,��,7.7,��
2018/10/31,06:40,0.785,1.189,0.834,1.489,1.077,0.462,0.809,0.765,��,8.2,��
2018/10/31,06:50,0.784,1.185,0.835,1.487,1.080,0.462,0.810,0.766,���쐼,7.3,��
2018/10/31,07:00,0.786,1.188,0.836,1.488,1.078,0.462,0.809,0.765,��,7.6,��
2018/10/31,07:10,0.787,1.188,0.835,1.487,1.080,0.462,0.809,0.766,���쐼,7.7,��
2018/10/31,07:20,0.785,1.188,0.836,1.484,1.079,0.462,0.811,0.766,��,9.2,��
2018/10/31,07:30,0.787,1.187,0.836,1.486,1.078,0.461,0.808,0.765,��,7.7,��
2018/10/31,07:40,0.785,1.189,0.835,1.487,1.079,0.462,0.808,0.767,���쐼,5.6,��
2018/10/31,07:50,0.786,1.189,0.836,1.487,1.080,0.461,0.809,0.767,���쐼,6.1,��
2018/10/31,08:00,0.786,1.186,0.834,1.487,1.080,0.462,0.810,0.766,���쐼,6.8,��
2018/10/31,08:10,0.787,1.190,0.837,1.486,1.078,0.462,0.810,0.766,���쐼,6.7,��
2018/10/31,08:20,0.787,1.191,0.837,1.487,1.081,0.462,0.810,0.766,�쐼,8.0,��
2018/10/31,08:30,0.786,1.191,0.837,1.487,1.080,0.464,0.810,0.766,���쐼,8.1,��
2018/10/31,08:40,0.786,1.184,0.836,1.487,1.079,0.462,0.810,0.768,���쐼,7.1,��
2018/10/31,08:50,0.786,1.186,0.837,1.486,1.080,0.462,0.808,0.767,���쐼,7.8,��
2018/10/31,09:00,0.787,1.183,0.836,1.487,1.081,0.462,0.807,0.766,���쐼,8.9,��
2018/10/31,09:10,0.788,1.182,0.836,1.486,1.081,0.464,0.808,0.766,��,7.6,��
2018/10/31,09:20,0.787,1.184,0.836,1.487,1.080,0.463,0.806,0.766,���쐼,8.7,��
2018/10/31,09:30,0.788,1.184,0.838,1.489,1.081,0.463,0.807,0.767,��,11.1,��
2018/10/31,09:40,0.787,1.183,0.836,1.486,1.081,0.465,0.808,0.767,��,10.8,��
2018/10/31,09:50,0.786,1.184,0.838,1.488,1.081,0.465,0.809,0.766,��,11.0,��
2018/10/31,10:00,0.788,1.185,0.837,1.486,1.081,0.464,0.806,0.765,���쐼,8.8,��
2018/10/31,10:10,0.789,1.185,0.836,1.489,1.081,0.464,0.808,0.765,���쐼,9.5,��
2018/10/31,10:20,0.788,1.185,0.837,1.485,1.080,0.462,0.808,0.766,���쐼,9.7,��
2018/10/31,10:30,0.788,1.181,0.836,1.487,1.082,0.461,0.810,0.765,���쐼,8.6,��
2018/10/31,10:40,0.788,1.183,-,1.487,1.081,0.463,0.807,0.764,���쐼,10.6,��
2018/10/31,10:50,0.789,1.184,-,1.489,1.079,0.463,0.809,0.764,���쐼,7.2,��
2018/10/31,11:00,0.790,1.186,-,1.488,1.080,0.460,0.808,0.764,���쐼,7.5,��
2018/10/31,11:10,0.790,1.185,-,1.488,1.079,0.461,0.810,0.766,��,10.0,��
2018/10/31,11:20,0.790,1.187,-,1.489,1.079,0.462,0.810,0.767,��,7.3,��
2018/10/31,11:30,0.789,1.188,-,1.486,1.080,0.464,0.811,0.767,���쐼,7.3,��
2018/10/31,11:40,0.788,1.185,-,1.487,1.082,0.462,0.806,0.766,��,8.8,��
2018/10/31,11:50,0.788,1.188,-,1.491,1.081,0.462,0.809,0.767,��,8.0,��
2018/10/31,12:00,0.786,1.188,-,1.489,1.081,0.463,0.808,0.767,��,7.3,��
2018/10/31,12:10,0.786,1.187,-,1.490,1.079,0.463,0.810,0.767,���쐼,7.9,��
2018/10/31,12:20,0.788,1.187,-,1.492,1.081,0.464,0.811,0.766,��,9.3,��
2018/10/31,12:30,0.788,1.186,-,1.490,1.079,0.467,0.811,0.765,��,8.0,�L
2018/10/31,12:40,0.788,1.186,-,1.492,1.081,0.464,0.809,0.764,��,11.7,�L
2018/10/31,12:50,0.788,1.189,-,1.493,1.084,0.465,0.810,0.763,���쐼,7.4,��
2018/10/31,13:00,0.787,1.188,-,1.492,1.081,0.465,0.810,0.766,���쐼,7.3,��
2018/10/31,13:10,0.787,1.185,-,1.492,1.081,0.463,0.809,0.764,��,8.1,��
2018/10/31,13:20,0.789,1.186,-,1.492,1.080,0.466,0.809,0.764,���쐼,8.4,��
2018/10/31,13:30,0.788,1.186,-,1.495,1.081,0.464,0.808,0.765,���쐼,8.2,��
2018/10/31,13:40,0.786,1.186,-,1.495,1.081,0.464,0.810,0.764,���k��,7.4,��
2018/10/31,13:50,0.790,1.184,-,1.491,1.083,0.465,0.809,0.764,���쐼,6.5,��
2018/10/31,14:00,0.787,1.186,-,1.492,1.083,0.464,0.811,0.764,���k��,6.0,��
2018/10/31,14:10,0.788,1.188,-,1.491,1.083,0.465,0.810,0.765,��,5.8,��
2018/10/31,14:20,0.787,1.188,-,1.493,1.082,0.461,0.810,0.766,���k��,7.7,��
2018/10/31,14:30,0.786,1.187,-,1.492,1.081,0.461,0.810,0.764,��,5.7,��
2018/10/31,14:40,0.788,1.188,-,1.493,1.076,0.462,0.809,0.764,���쐼,7.3,��
2018/10/31,14:50,0.788,1.188,-,1.492,1.080,0.461,0.808,0.763,��,6.7,��
2018/10/31,15:00,0.790,1.188,-,1.492,1.082,0.464,0.807,0.765,��,7.0,��
2018/10/31,15:10,0.788,1.190,-,1.493,1.082,0.462,0.808,0.763,��,7.5,��
2018/10/31,15:20,0.789,1.191,0.835,1.496,1.083,0.464,0.811,0.764,��,9.2,��
2018/10/31,15:30,0.788,1.192,0.836,1.495,1.082,0.463,0.807,0.765,��,10.5,��
2018/10/31,15:40,0.788,1.195,0.834,1.493,1.081,0.463,0.811,0.764,��,10.5,��
2018/10/31,15:50,0.788,1.192,0.835,1.495,1.083,0.463,0.810,0.765,��,7.1,��
2018/10/31,16:00,0.787,1.193,0.835,1.493,1.082,0.463,0.809,0.766,��,4.3,��
2018/10/31,16:10,0.787,1.192,0.834,1.495,1.081,0.464,0.808,0.768,��,5.4,��
2018/10/31,16:20,0.787,1.196,0.834,1.490,1.083,0.465,0.809,0.767,��,4.8,��
2018/10/31,16:30,0.789,1.198,0.835,1.495,1.083,0.463,0.807,0.767,��,4.8,��
2018/10/31,16:40,0.787,1.198,0.835,1.493,1.081,0.464,0.809,0.767,��,4.0,��
2018/10/31,16:50,0.788,1.198,0.837,1.495,1.082,0.463,0.808,0.766,��,3.0,��
2018/10/31,17:00,0.788,1.197,0.835,1.493,1.085,0.464,0.809,0.767,���쐼,4.5,��
2018/10/31,17:10,0.790,1.196,0.836,1.492,1.087,0.463,0.811,0.767,��,5.5,��
2018/10/31,17:20,0.790,1.195,0.835,1.493,1.083,0.464,0.812,0.767,��,6.0,��
2018/10/31,17:30,0.790,1.197,0.837,1.495,1.087,0.464,0.810,0.767,��,6.0,��
2018/10/31,17:40,0.789,1.194,0.837,1.496,1.086,0.465,0.812,0.767,��,6.0,��
2018/10/31,17:50,0.789,1.196,0.836,1.492,1.086,0.464,0.812,0.764,��,6.3,��
2018/10/31,18:00,0.789,1.195,0.834,1.494,1.084,0.464,0.811,0.767,���k��,6.3,��
2018/10/31,18:10,0.789,1.197,0.836,1.493,1.084,0.462,0.811,0.766,��,7.2,��
2018/10/31,18:20,0.788,1.195,0.837,1.492,1.084,0.463,0.811,0.765,��,5.0,��
2018/10/31,18:30,0.788,1.195,0.837,1.494,1.083,0.463,0.811,0.767,��,5.0,��
2018/10/31,18:40,0.789,1.196,0.836,1.494,1.086,0.464,0.811,0.765,��,6.6,��
2018/10/31,18:50,0.789,1.198,0.837,1.495,1.085,0.464,0.810,0.767,���k��,7.1,��
2018/10/31,19:00,0.788,1.195,0.836,1.496,1.088,0.464,0.811,0.767,��,6.4,��
2018/10/31,19:10,0.787,1.195,0.837,1.493,1.083,0.463,0.810,0.767,���k��,6.5,��
2018/10/31,19:20,0.787,1.194,0.837,1.495,1.084,0.464,0.809,0.766,���k��,4.9,��
2018/10/31,19:30,0.789,1.194,0.836,1.493,1.083,0.463,0.812,0.765,���k��,2.8,��
2018/10/31,19:40,0.788,1.196,0.837,1.495,1.085,0.464,0.809,0.766,��,3.5,��
2018/10/31,19:50,0.787,1.194,0.835,1.492,1.086,0.464,0.810,0.767,��,3.2,��
2018/10/31,20:00,0.787,1.193,0.834,1.493,1.086,0.462,0.810,0.766,���k��,3.3,��
2018/10/31,20:10,0.786,1.193,0.836,1.492,1.086,0.462,0.809,0.766,��,3.3,��
2018/10/31,20:20,0.788,1.194,0.837,1.496,1.081,0.463,0.809,0.766,��,2.3,��
2018/10/31,20:30,0.788,1.195,0.837,1.494,1.084,0.463,0.810,0.765,���쐼,1.1,��
2018/10/31,20:40,0.788,1.193,0.836,1.495,1.086,0.463,0.810,0.767,�쓌,1.4,��
2018/10/31,20:50,0.788,1.193,0.836,1.492,1.084,0.463,0.809,0.765,��,3.7,��
2018/10/31,21:00,0.788,1.192,0.836,1.493,1.083,0.462,0.811,0.765,��,2.8,��
2018/10/31,21:10,0.788,1.192,0.836,1.494,1.085,0.461,0.809,0.767,���쐼,3.2,��
2018/10/31,21:20,0.786,1.196,0.835,1.492,1.084,0.463,0.812,0.765,���쐼,3.4,��
2018/10/31,21:30,0.786,1.192,0.837,1.491,1.085,0.463,0.811,0.765,��,4.2,��
2018/10/31,21:40,0.788,1.193,0.835,1.492,1.083,0.463,0.812,0.766,��,3.6,��
2018/10/31,21:50,0.788,1.194,0.835,1.492,1.083,0.462,0.808,0.765,��,3.4,��
2018/10/31,22:00,0.786,1.195,0.837,1.494,1.083,0.461,0.810,0.765,��,3.1,��
2018/10/31,22:10,0.789,1.195,0.834,1.493,1.081,0.462,0.811,0.765,���k��,2.3,��
2018/10/31,22:20,0.786,1.193,0.833,1.493,1.079,0.461,0.810,0.766,��,2.2,��
2018/10/31,22:30,0.787,1.192,0.836,1.492,1.081,0.462,0.810,0.765,��,2.9,��
2018/10/31,22:40,0.788,1.192,0.835,1.494,1.083,0.463,0.809,0.766,���쐼,2.5,��
2018/10/31,22:50,0.787,1.192,0.834,1.490,1.081,0.464,0.809,0.765,���쐼,3.5,��
2018/10/31,23:00,0.786,1.192,0.834,1.492,1.082,0.462,0.810,0.765,��,2.9,��
2018/10/31,23:10,0.788,1.193,0.836,1.492,1.083,0.462,0.810,0.765,��,3.6,��
2018/10/31,23:20,0.789,1.194,0.835,1.491,1.082,0.463,0.807,0.764,���쐼,3.2,��
2018/10/31,23:30,0.787,1.196,0.835,1.492,1.081,0.462,0.809,0.765,��,4.1,��
2018/10/31,23:40,0.786,1.191,0.835,1.491,1.083,0.460,0.809,0.765,���쐼,4.4,��
2018/10/31,23:50,0.785,1.193,0.837,1.493,1.085,0.461,0.808,0.764,���쐼,3.9,��
